カタログに戻る

STARLINK-35973

運用中通信VLEO
NORAD 66632·PAYLOAD·🇺🇸 United States

打ち上げ Nov 23, 2025 から Vandenberg Space Force Base

Loading…

次のパス (今後24時間)

TLE

最新Source: CelesTrak SupGP

元期: Sep 15, 2026, 03:56 UTC

1 66632C 25271R   26258.16437500  .00058413  00000+0  17254-2 0  2588
2 66632  53.1598 334.9250 0001198  86.1237 339.1186 15.34369040    15

AllMySatでSTARLINK-35973をリアルタイム追跡

Download on the App Store